Kezdőlap
METAR-TAF:

METAR-TAF

Repülőterek :

Ames, Iowa, Amerikai Egyesült Államok

földrajzi szélesség: 41-59-26N, földrajzi hosszúság: 093-37-08W, magasság: 288 m

Jelenlegi meteorológiai megfigyelések

A jelentés 9 perccel ezelõtt készült, 12:53 UTC
Keleti szél 6 kt
Hőmérséklet -4°C
Páratartalom 93%
Légköri nyomás 1027 hPa
Látótávolság: 2.8 km
Borult 200 lábon
Párásság

METAR: KAMW 081253Z AUTO 08006KT 1 3/4SM BR OVC002 M04/M05 A3033 RMK AO2 SLP279 I1001 T10441050

Idő: 07:02 (13:02 UTC)


TAF: hiányzik

Meteorológiai megfigyelések és előrejelzések több, mint 4000 repülőtéren (METAR és TAF jelentéseket).

A térképen piros és sárga pontok jelzik az elérhető meteorológiai állomásokat.

Mozgassa az egeret a pont fölött, hogy megjelenjen az állomás neve.

Azután kattintson az időjárási megfigyelések és előrejelzések megtekintéséhez.

A térkép megváltoztatása: kattintson a fekete keresztel jelölt zöld gombra ráközelítéshez, a vonallal jelölt zöld gombra távolításhoz, vagy a zöld nyilakra a szomszédos térképek eléréséhez.


METAR-TAF: